STARLINK-32641, 62236

Orbit data source: Space-Track

STARLINK-32641, 62236 is a payload satellite owned by SpaceX/Seattle (US) in LEO that was launched on Thu, 05 Dec 2024 UTC via an FALCON 9 launch vehicle from the Air Force Western Test Range (AFWTR). Payloads include a variety of satellites, spacecraft, and rockets equipped with specific instruments for various scientific and technological missions. These include communications satellites like Starlink; space stations such as the ISS; scientific satellites like the Hubble; Earth observation satellites from companies like Planet Labs, Umbra, and HawkEye 360; GPS; miniature CubeSats for education and research; and military/defense satellites.

Loading next visibility...
STARLINK-32641 details
Identifier
62236, 2024-231U
Orbit
LEO
Last TLE update15 hours ago
Origin
Flag of USSpaceX/Seattle (US)
ManufacturerSpaceX/Seattle
MissionOperational spacecraft
Bus & MotorSTARLINK V2M, Unknown motor
Mass730 kg wet, ~700 kg dry
Launch date (UTC)
2024-12-05 (2 months ago)
Launch vehicle
FALCON 9
Launch site
Air Force Western Test Range (AFWTR)
Object type
Payload
Rocket body
Debris
Shape & HBRUnknown
Radar Cross SectionLarge (>1 m²)

Expand to show TLE details & history

TLE from 15 hours ago
0 STARLINK-32641
1 62236U 24231U   25025.23025186  .00001400  00000-0  45009-4 0  9999
2 62236  53.1601 321.7007 0001377  90.3245 269.7918 15.39598246  9124
Epoch: 2025-01-25T05:31Z
Definitive object data (Epoch: 2025-01-25T05:31:33.76Z)
Latitude-0°
Longitude114.02798°
Altitude448.203 km
Speed7.645 km/s
True Right ascension21h 26m 48s
True Declination0° 00' 00"
Sunlit
Object was in daylight at TLE epoch
Visualization TLE readout
Latitude-53.28281°
Longitude23.71015°
Altitude466.758 km
Speed7.632 km/s
Apparent Right ascension12h 27m 55s
Apparent Declination-54° 06' 23"
Sunlit
Object is in daylight
Visualization observer readout
Local Sidereal Time22:04:30
Azimuth227.34° WSW
Elevation-62.164°
Doppler factor1
Orbital elements
Apogee altitude448.494 km
Perigee altitude446.614 km
Semi-major axis6,825.691 km
Eccentricity0.0001377
Inclination53.1601°
RAAN321.7007°
Arg. of periapsis90.3245°
True anomaly269.77602°
Mean anomaly269.7918°
Eccentric anomaly269.78391°
Mean motion3.84878 °/min
BSTAR0.000045009
Orbital period93.54 mins
Loading maneuver chart data...
Loading historical data...
Loading historical data...
Loading historical data...
Loading historical data...
Loading historical data...
Loading historical data...
Loading historical data...

STARLINK-32641 Visibility forecast

Observer location: undefined°, undefined

Span
Click to sort rows by Start time (UTC) header in descending order
Start Az.
Max El. time (UTC)
Max El. Az.
Max El.
End time (UTC)
End Az.
4 mins2025-01-25 21:15:21.612Z171.724° S2025-01-25 21:17:21.612Z136.55° SSE16.722°2025-01-25 21:19:21.612Z95.315° ESE
5 mins2025-01-25 22:52:21.612Z253.972° W2025-01-25 22:54:21.612Z301.422° NW35.821°2025-01-25 22:57:21.612Z36.676° NE
4 mins2025-01-26 03:48:21.612Z354.723° N2025-01-26 03:49:21.612Z17.244° NNE19.355°2025-01-26 03:52:21.612Z76.336° E
5 mins2025-01-26 05:25:21.612Z296.595° NW2025-01-26 05:27:21.612Z210.306° SW41.015°2025-01-26 05:30:21.612Z143.588° SSE
|